FW2418 Weather Reports


time (UTC)temp
C
wind
direction
speed
KPH
gust
KPH
rain 1hr
cm
rain 24hr
cm
rain mn
cm
humidity
%
barometer
mb
20260904195345 35 136 0.0 14.5 0.00 0.00 0.00 61 1011.0
20260904194242 35 206 1.6 14.5 0.00 0.00 0.00 59 1011.0
20260904193241 35 173 3.2 14.5 0.00 0.00 0.00 59 1011.0
20260904192240 35 182 3.2 12.9 0.00 0.00 0.00 59 1011.3
20260904191239 35 174 4.8 12.9 0.00 0.00 0.00 59 1011.3
20260904190238 36 177 3.2 12.9 0.00 0.00 0.00 58 1011.7
20260904185237 35 165 4.8 12.9 0.00 0.00 0.00 61 1011.7
20260904184236 35 238 1.6 14.5 0.00 0.00 0.00 60 1012.0
20260904183235 35 176 4.8 14.5 0.00 0.00 0.00 59 1012.4
20260904182204 35 230 1.6 11.3 0.00 0.00 0.00 61 1012.4
20260904181131 35 163 4.8 11.3 0.00 0.00 0.00 61 1012.4
20260904180059 34 210 1.6 6.4 0.00 0.00 0.00 62 1012.4
20260904175027 34 171 3.2 8.0 0.00 0.00 0.00 63 1012.7
20260904174026 33 168 3.2 14.5 0.00 0.00 0.00 65 1012.7
20260904173025 35 117 3.2 14.5 0.00 0.00 0.00 60 1012.7
20260904172024 35 172 3.2 12.9 0.00 0.00 0.00 62 1013.0
20260904171024 35 167 1.6 12.9 0.00 0.00 0.00 61 1013.0
20260904170023 34 207 3.2 8.0 0.00 0.00 0.00 65 1013.4
20260904165022 33 329 1.6 9.7 0.00 0.00 0.00 67 1013.4
20260904163949 33 172 3.2 11.3 0.00 0.00 0.00 66 1013.4
20260904162917 33 205 3.2 11.3 0.00 0.00 0.00 67 1013.4
20260904161917 33 166 4.8 9.7 0.00 0.00 0.00 70 1013.4
20260904160845 33 176 4.8 9.7 0.00 0.00 0.00 70 1013.7
20260904155813 33 242 1.6 14.5 0.00 0.00 0.00 69 1013.7
20260904154812 33 177 6.4 12.9 0.00 0.00 0.00 71 1013.7
20260904153811 32 141 3.2 9.7 0.00 0.00 0.00 73 1013.7
20260904152810 33 124 4.8 9.7 0.00 0.00 0.00 72 1013.7
20260904151810 32 177 3.2 9.7 0.00 0.00 0.00 72 1013.7
20260904150809 32 188 4.8 9.7 0.00 0.00 0.00 73 1013.7
20260904145737 32 138 3.2 8.0 0.00 0.00 0.00 73 1013.7
20260904144736 32 180 1.6 9.7 0.00 0.00 0.00 76 1013.7
20260904143735 31 153 3.2 9.7 0.00 0.00 0.00 78 1013.7
20260904142734 31 178 3.2 8.0 0.00 0.00 0.00 78 1013.7
20260904141702 31 180 1.6 4.8 0.00 0.00 0.00 80 1013.4
20260904140701 30 122 0.0 6.4 0.00 0.03 0.00 82 1013.4
20260904135700 30 267 1.6 6.4 0.00 0.05 0.00 83 1013.4
20260904134659 30 159 3.2 6.4 0.00 0.05 0.00 84 1013.4
20260904133627 30 124 1.6 4.8 0.00 0.05 0.00 86 1013.4
20260904132626 29 174 1.6 3.2 0.00 0.05 0.00 87 1013.4
20260904131626 28 122 1.6 3.2 0.00 0.05 0.00 88 1013.4
20260904130625 28 115 1.6 1.6 0.00 0.05 0.00 91 1013.4
20260904125624 28 162 0.0 1.6 0.00 0.05 0.00 93 1013.4
20260904124623 27 159 1.6 1.6 0.00 0.05 0.00 95 1013.4
20260904123622 26 124 0.0 0.0 0.00 0.05 0.00 100 1013.0
20260904122550 25 124 0.0 0.0 0.00 0.05 0.00 100 1013.0
20260904121549 24 124 0.0 0.0 0.00 0.05 0.00 100 1013.0
20260904120549 23 124 0.0 0.0 0.00 0.05 0.00 100 1013.0
20260904115548 23 126 0.0 0.0 0.00 0.05 0.00 99 1012.7
20260904114516 23 125 0.0 0.0 0.00 0.05 0.00 99 1013.0
20260904113515 23 126 0.0 0.0 0.00 0.05 0.00 99 1012.7
20260904112514 23 125 0.0 0.0 0.00 0.05 0.00 99 1012.7
20260904111514 23 125 0.0 0.0 0.00 0.05 0.00 99 1012.3
20260904110442 23 124 0.0 0.0 0.00 0.05 0.00 99 1012.3
20260904105441 23 124 0.0 0.0 0.00 0.05 0.00 99 1012.3
20260904104440 23 124 0.0 0.0 0.00 0.05 0.00 99 1012.0
20260904103439 23 124 0.0 0.0 0.00 0.05 0.00 99 1012.0
20260904102438 24 124 0.0 0.0 0.00 0.05 0.00 99 1012.0
20260904101437 24 124 0.0 0.0 0.00 0.05 0.00 99 1012.0
20260904100436 24 124 0.0 0.0 0.00 0.05 0.00 99 1011.7
20260904095435 24 124 0.0 0.0 0.00 0.05 0.00 99 1011.7
20260904094435 24 124 0.0 0.0 0.00 0.05 0.00 99 1011.7
20260904093434 24 124 0.0 0.0 0.00 0.05 0.00 99 1011.7
20260904092433 24 124 0.0 0.0 0.00 0.05 0.00 99 1011.7
20260904091432 24 124 0.0 0.0 0.00 0.05 0.00 99 1011.7
20260904090431 24 124 0.0 0.0 0.00 0.05 0.00 99 1011.7
20260904085431 24 124 0.0 0.0 0.00 0.05 0.00 99 1011.7
20260904084430 24 124 0.0 0.0 0.00 0.05 0.00 99 1011.7
20260904083429 24 124 0.0 0.0 0.00 0.05 0.00 99 1011.7
20260904082429 24 124 0.0 0.0 0.00 0.05 0.00 99 1011.7
20260904081428 24 124 0.0 0.0 0.00 0.05 0.00 99 1012.0
20260904080427 24 124 0.0 0.0 0.00 0.05 0.00 99 1011.7
20260904075426 24 124 0.0 0.0 0.00 0.05 0.00 99 1011.7
20260904074425 24 124 0.0 0.0 0.00 0.05 0.00 99 1011.7
20260904073424 24 124 0.0 0.0 0.00 0.05 0.00 99 1011.7
20260904072424 24 124 0.0 0.0 0.00 0.05 0.00 99 1011.7
20260904071423 24 124 0.0 0.0 0.00 0.05 0.00 99 1011.7
20260904070422 25 124 0.0 0.0 0.00 0.05 0.00 98 1011.7
20260904065421 25 124 0.0 0.0 0.00 0.05 0.00 98 1011.7
20260904064420 25 124 0.0 0.0 0.00 0.05 0.00 98 1011.7
20260904063420 25 124 0.0 0.0 0.00 0.05 0.00 98 1011.7
20260904062419 25 124 0.0 0.0 0.00 0.05 0.00 98 1011.7
20260904061418 25 124 0.0 0.0 0.00 0.05 0.00 98 1012.0
20260904060417 25 124 0.0 0.0 0.00 0.05 0.00 98 1012.0
20260904055416 25 124 0.0 0.0 0.00 0.05 0.00 98 1012.3
20260904054416 25 124 0.0 0.0 0.00 0.05 0.00 98 1012.3
20260904053415 25 124 0.0 0.0 0.00 0.05 0.00 98 1012.3
20260904052414 25 124 0.0 0.0 0.00 0.05 0.00 98 1012.3
20260904051342 25 124 0.0 0.0 0.00 0.05 0.00 98 1012.3
20260904050341 25 124 0.0 0.0 0.00 0.05 0.00 98 1012.3
20260904045341 25 124 0.0 0.0 0.00 0.05 0.00 97 1012.7
20260904044340 25 124 0.0 0.0 0.00 0.05 0.00 97 1012.7
20260904043307 25 124 0.0 0.0 0.00 0.05 0.00 97 1012.7
20260904042307 25 124 0.0 0.0 0.00 0.05 0.00 97 1012.7
20260904041306 26 124 0.0 0.0 0.00 0.05 0.00 97 1012.3
20260904040305 26 124 0.0 0.0 0.00 0.05 0.00 96 1012.3
20260904035306 26 124 0.0 1.6 0.00 0.05 0.05 96 1012.3
20260904034232 26 124 1.6 1.6 0.00 0.05 0.05 96 1012.3
20260904033231 26 124 0.0 1.6 0.00 0.05 0.05 96 1012.7
20260904032231 26 124 0.0 3.2 0.00 0.05 0.05 96 1012.3
20260904031230 26 124 1.6 4.8 0.00 0.05 0.05 96 1012.3
20260904030229 26 225 1.6 4.8 0.00 0.05 0.05 95 1012.3
20260904025228 26 119 3.2 4.8 0.00 0.05 0.05 95 1012.3
20260904024227 26 121 1.6 4.8 0.00 0.05 0.05 95 1012.3
20260904023226 26 164 1.6 6.4 0.00 0.05 0.05 95 1012.3
20260904022225 26 130 3.2 8.0 0.00 0.05 0.05 95 1012.3
20260904021224 26 186 1.6 4.8 0.00 0.05 0.05 95 1012.3
20260904020224 26 131 1.6 4.8 0.00 0.05 0.05 95 1012.3
20260904015223 26 113 1.6 4.8 0.00 0.05 0.05 95 1012.3
20260904014222 26 101 1.6 4.8 0.00 0.05 0.05 95 1012.3
20260904013221 26 128 1.6 4.8 0.00 0.05 0.05 95 1012.3
20260904012220 27 129 0.0 1.6 0.00 0.05 0.05 94 1012.0
20260904011219 27 111 1.6 1.6 0.00 0.05 0.05 94 1012.3
20260904010218 27 117 1.6 4.8 0.00 0.05 0.05 93 1012.3
20260904005146 27 124 0.0 4.8 0.00 0.05 0.05 93 1012.3
20260904004114 27 135 1.6 4.8 0.00 0.05 0.05 93 1012.0
20260904003114 27 126 1.6 4.8 0.00 0.05 0.05 93 1012.3
20260904002113 27 129 1.6 8.0 0.00 0.05 0.05 92 1012.0
20260904001112 27 124 1.6 8.0 0.00 0.05 0.05 92 1012.0
20260904000111 27 129 3.2 6.4 0.00 0.05 0.05 91 1011.7
20260903235110 27 138 1.6 3.2 0.00 0.05 0.05 91 1011.7
20260903234109 27 125 1.6 3.2 0.00 0.05 0.05 90 1011.7
20260903233109 28 129 1.6 3.2 0.00 0.05 0.05 89 1011.7
20260903232107 28 162 0.0 3.2 0.00 0.05 0.05 89 1011.7
20260903231107 28 195 0.0 6.4 0.00 0.05 0.05 88 1011.7
20260903230034 28 192 3.2 6.4 0.00 0.05 0.05 87 1011.7
20260903225034 28 120 1.6 6.4 0.00 0.05 0.05 87 1011.3
20260903224033 28 134 1.6 6.4 0.00 0.05 0.05 87 1011.3
20260903223032 28 147 3.2 4.8 0.00 0.05 0.05 87 1011.0
20260903222031 28 99 1.6 8.0 0.00 0.05 0.05 87 1011.0
20260903221030 29 177 3.2 8.0 0.00 0.05 0.05 86 1011.0
20260903215958 29 112 3.2 6.4 0.00 0.05 0.05 85 1011.3
20260903214957 29 121 1.6 4.8 0.00 0.05 0.05 84 1011.3
20260903213721 29 190 3.2 6.4 0.00 0.05 0.05 84 1011.0
20260903212720 29 140 1.6 4.8 0.00 0.05 0.05 83 1010.6
20260903211719 30 121 1.6 4.8 0.00 0.05 0.05 83 1010.6
20260903210718 30 123 1.6 4.8 0.00 0.05 0.05 82 1010.6
20260903205646 30 117 1.6 3.2 0.00 0.05 0.05 82 1010.6
20260903204645 30 84 3.2 6.4 0.00 0.05 0.05 81 1010.6
20260903203644 30 120 3.2 6.4 0.00 0.05 0.05 81 1010.6
20260903202643 30 73 1.6 4.8 0.00 0.05 0.05 80 1011.0
20260903201643 30 129 1.6 4.8 0.00 0.05 0.05 79 1011.0
20260903200642 30 102 1.6 4.8 0.00 0.05 0.05 78 1011.0